Location: *
(49.9853°N, 3.5569°E)
Time: 14:00:57
(UTC+00:00)

Cosmos 1980 - Pass Details

Date: 22 September 2019
Orbit: 841 x 846 km, 71.0° (Epoch: 15 October)

Event Time Altitude Azimuth Distance (km) Brightness Sun altitude
Rises 18:51:11 0° 329° (NNW) 3,409 7.6 -11.4°
Reaches altitude 10° 18:53:39 10° 327° (NNW) 2,470 6.9 -11.8°
Maximum altitude 18:59:16 67° 246° (WSW) 914 4.1 -12.7°
Drops below altitude 10° 19:04:50 10° 165° (SSE) 2,452 5.8 -13.5°
Enters shadow 19:07:08 - 163° (SSE) 3,330 6.5 -13.9°
